Вернуться в каталог

CUBY-1

АктивенНаукаSSO
NORAD 69902·PAYLOAD·🇦🇹 Austria

Запущен Jul 7, 2026 с Vandenberg Space Force Base

Loading…

Ближайшие Пролёты (ближайшие 24 часа)

TLE

СвежийSource: Space-Track

Эпоха: Sep 14, 2026, 04:39 UTC

1 69902U 26156AK  26257.19413801  .00001523  00000-0  15906-3 0  9990
2 69902  97.7415 156.3858 0002506 258.5929 101.5008 14.91158958 10265

Отслеживайте CUBY-1 в реальном времени с AllMySat

Download on the App Store